When you browse on this site, cookies collect data to enhance your experience and personalize the content and advertising you see.
Visit our Privacy Policy to learn more. By continuing to use the site, you agree to this use of cookies and data.
  • en France
  • Liste des pays
  • À 7 jours
  • Température de l'eau
  • Carte satellitaire
  • Carte météo
  • Widgets météo
  • user-avatar
    Se connecter

    Météo par heure à Mokoa

    Ce jour, 20 Novembre, Mardi

    Heure Température Précipitation Vent Pression Humidité
    00:00 +27°C° 0.1 mm 4 m/s 753 mmHg 87%
    01:00 +27°C° 0 mm 5 m/s 753 mmHg 88%
    02:00 +27°C° 0.3 mm 4 m/s 753 mmHg 89%
    03:00 +27°C° 0.3 mm 4 m/s 753 mmHg 89%
    04:00 +27°C° 0.3 mm 4 m/s 753 mmHg 90%
    05:00 +27°C° 0.2 mm 4 m/s 753 mmHg 88%
    06:00 +28°C° 0.2 mm 4 m/s 753 mmHg 87%
    07:00 +29°C° 0 mm 4 m/s 754 mmHg 84%
    08:00 +30°C° 0 mm 4 m/s 754 mmHg 78%
    09:00 +32°C° 0 mm 5 m/s 754 mmHg 71%
    10:00 +34°C° 0 mm 5 m/s 754 mmHg 64%
    11:00 +34°C° 0.1 mm 5 m/s 753 mmHg 62%
    12:00 +35°C° 0.1 mm 5 m/s 753 mmHg 60%
    13:00 +36°C° 0.1 mm 5 m/s 752 mmHg 57%
    14:00 +35°C° 0.1 mm 5 m/s 752 mmHg 60%
    15:00 +34°C° 0.1 mm 5 m/s 752 mmHg 62%
    16:00 +34°C° 0.1 mm 5 m/s 752 mmHg 64%
    17:00 +32°C° 0.3 mm 5 m/s 752 mmHg 69%
    18:00 +30°C° 0.3 mm 5 m/s 753 mmHg 74%
    19:00 +29°C° 0.3 mm 5 m/s 753 mmHg 79%
    20:00 +29°C° 0.3 mm 5 m/s 753 mmHg 82%
    21:00 +28°C° 0.3 mm 5 m/s 754 mmHg 85%
    22:00 +28°C° 0.3 mm 5 m/s 754 mmHg 87%
    23:00 +28°C° 0.5 mm 5 m/s 754 mmHg 88%

    Demain, 21 Novembre, Mercredi

    Heure Température Précipitation Vent Pression Humidité
    00:00 +28°C° 0.5 mm 5 m/s 754 mmHg 88%
    01:00 +28°C° 0.5 mm 5 m/s 754 mmHg 88%
    02:00 +28°C° 0 mm 5 m/s 754 mmHg 89%
    03:00 +28°C° 0 mm 4 m/s 754 mmHg 89%
    04:00 +27°C° 0 mm 4 m/s 753 mmHg 89%
    05:00 +28°C° 0 mm 4 m/s 754 mmHg 88%
    06:00 +28°C° 0 mm 4 m/s 754 mmHg 87%
    07:00 +28°C° 0 mm 5 m/s 755 mmHg 85%
    08:00 +30°C° 0 mm 5 m/s 755 mmHg 79%
    09:00 +32°C° 0 mm 5 m/s 755 mmHg 72%
    10:00 +33°C° 0 mm 6 m/s 755 mmHg 65%
    11:00 +34°C° 0 mm 6 m/s 754 mmHg 63%
    12:00 +34°C° 0 mm 6 m/s 754 mmHg 60%
    13:00 +35°C° 0 mm 5 m/s 753 mmHg 58%
    14:00 +34°C° 0.1 mm 5 m/s 753 mmHg 60%
    15:00 +34°C° 0.1 mm 5 m/s 752 mmHg 62%
    16:00 +33°C° 0.1 mm 5 m/s 752 mmHg 63%
    17:00 +32°C° 0 mm 5 m/s 752 mmHg 69%
    18:00 +30°C° 0 mm 5 m/s 753 mmHg 74%
    19:00 +29°C° 0 mm 5 m/s 753 mmHg 79%
    20:00 +28°C° 0.1 mm 5 m/s 754 mmHg 81%
    21:00 +28°C° 0.1 mm 5 m/s 754 mmHg 83%
    22:00 +28°C° 0.1 mm 5 m/s 754 mmHg 85%
    23:00 +28°C° 0.1 mm 5 m/s 754 mmHg 86%

    Après-demain, 22 Novembre, Jeudi

    Heure Température Précipitation Vent Pression Humidité
    00:00 +27°C° 0.1 mm 5 m/s 754 mmHg 87%
    01:00 +27°C° 0.1 mm 4 m/s 754 mmHg 88%
    02:00 +27°C° 0 mm 4 m/s 754 mmHg 88%
    03:00 +27°C° 0 mm 4 m/s 754 mmHg 88%
    04:00 +27°C° 0 mm 3 m/s 754 mmHg 88%
    05:00 +27°C° 0 mm 3 m/s 754 mmHg 87%
    06:00 +27°C° 0 mm 3 m/s 754 mmHg 86%
    07:00 +27°C° 0 mm 3 m/s 755 mmHg 85%
    08:00 +29°C° 0 mm 3 m/s 755 mmHg 76%
    09:00 +30°C° 0 mm 4 m/s 755 mmHg 66%
    10:00 +33°C° 0 mm 4 m/s 755 mmHg 57%
    11:00 +34°C° 0 mm 4 m/s 754 mmHg 52%
    12:00 +35°C° 0 mm 5 m/s 754 mmHg 48%
    13:00 +35°C° 0 mm 5 m/s 753 mmHg 43%
    14:00 +34°C° 0 mm 5 m/s 752 mmHg 47%
    15:00 +33°C° 0 mm 5 m/s 752 mmHg 52%
    16:00 +33°C° 0 mm 4 m/s 751 mmHg 56%
    17:00 +30°C° 0 mm 4 m/s 752 mmHg 64%
    18:00 +28°C° 0 mm 3 m/s 752 mmHg 72%
    19:00 +27°C° 0 mm 3 m/s 753 mmHg 81%
    20:00 +26°C° 0 mm 3 m/s 753 mmHg 82%
    21:00 +26°C° 0 mm 3 m/s 754 mmHg 84%
    22:00 +26°C° 0 mm 3 m/s 754 mmHg 86%
    23:00 +26°C° 0.4 mm 3 m/s 754 mmHg 87%

    23 Novembre, Vendredi

    Heure Température Précipitation Vent Pression Humidité
    00:00 +26°C° 0.4 mm 3 m/s 754 mmHg 88%
    01:00 +26°C° 0.4 mm 3 m/s 753 mmHg 90%
    02:00 +26°C° 0.4 mm 3 m/s 753 mmHg 91%
    03:00 +26°C° 0.4 mm 3 m/s 753 mmHg 91%
    04:00 +26°C° 0.4 mm 3 m/s 753 mmHg 92%
    05:00 +26°C° 0.1 mm 3 m/s 753 mmHg 90%
    06:00 +27°C° 0.1 mm 3 m/s 754 mmHg 89%
    07:00 +27°C° 0.1 mm 3 m/s 754 mmHg 87%
    08:00 +29°C° 0 mm 3 m/s 754 mmHg 78%
    09:00 +32°C° 0 mm 4 m/s 754 mmHg 69%
    10:00 +33°C° 0 mm 4 m/s 754 mmHg 60%
    11:00 +34°C° 0 mm 4 m/s 754 mmHg 57%
    12:00 +35°C° 0 mm 4 m/s 753 mmHg 54%
    13:00 +35°C° 0 mm 4 m/s 752 mmHg 51%
    14:00 +34°C° 0 mm 4 m/s 752 mmHg 55%
    15:00 +34°C° 0 mm 4 m/s 751 mmHg 59%
    16:00 +33°C° 0 mm 4 m/s 751 mmHg 62%
    17:00 +30°C° 0 mm 4 m/s 751 mmHg 69%
    18:00 +29°C° 0 mm 3 m/s 752 mmHg 76%
    19:00 +27°C° 0 mm 3 m/s 752 mmHg 83%
    20:00 +27°C° 0 mm 3 m/s 753 mmHg 84%
    21:00 +27°C° 0 mm 3 m/s 753 mmHg 86%
    22:00 +27°C° 0 mm 3 m/s 754 mmHg 88%
    23:00 +26°C° 0.1 mm 3 m/s 754 mmHg 89%

    24 Novembre, Samedi

    Heure Température Précipitation Vent Pression Humidité
    00:00 +26°C° 0.1 mm 3 m/s 753 mmHg 90%
    01:00 +26°C° 0.1 mm 2 m/s 753 mmHg 91%
    02:00 +26°C° 0.4 mm 2 m/s 753 mmHg 92%
    03:00 +26°C° 0.4 mm 2 m/s 753 mmHg 92%
    04:00 +26°C° 0.4 mm 2 m/s 753 mmHg 93%
    05:00 +26°C° 0.2 mm 2 m/s 753 mmHg 91%
    06:00 +27°C° 0.2 mm 2 m/s 754 mmHg 90%
    07:00 +27°C° 0.2 mm 2 m/s 754 mmHg 88%
    08:00 +29°C° 0.1 mm 3 m/s 754 mmHg 80%
    09:00 +30°C° 0.1 mm 3 m/s 754 mmHg 72%
    10:00 +33°C° 0.1 mm 4 m/s 755 mmHg 64%
    11:00 +34°C° 0.2 mm 4 m/s 754 mmHg 62%
    12:00 +34°C° 0.2 mm 4 m/s 753 mmHg 60%
    13:00 +35°C° 0.2 mm 4 m/s 752 mmHg 58%
    14:00 +34°C° 0.2 mm 4 m/s 752 mmHg 60%
    15:00 +33°C° 0.2 mm 4 m/s 752 mmHg 62%
    16:00 +33°C° 0.2 mm 4 m/s 751 mmHg 64%
    17:00 +30°C° 0 mm 4 m/s 752 mmHg 70%
    18:00 +29°C° 0 mm 3 m/s 752 mmHg 77%
    19:00 +27°C° 0 mm 3 m/s 753 mmHg 83%
    20:00 +27°C° 0 mm 3 m/s 753 mmHg 85%
    21:00 +27°C° 0 mm 3 m/s 754 mmHg 87%
    22:00 +27°C° 0 mm 3 m/s 754 mmHg 88%
    23:00 +27°C° 0.3 mm 3 m/s 754 mmHg 90%

    25 Novembre, Dimanche

    Heure Température Précipitation Vent Pression Humidité
    00:00 +26°C° 0.3 mm 3 m/s 753 mmHg 91%
    01:00 +26°C° 0.3 mm 2 m/s 753 mmHg 93%
    02:00 +26°C° 0.5 mm 2 m/s 753 mmHg 93%
    03:00 +26°C° 0.5 mm 2 m/s 753 mmHg 94%
    04:00 +26°C° 0.5 mm 2 m/s 753 mmHg 94%
    05:00 +26°C° 0.1 mm 2 m/s 753 mmHg 93%
    06:00 +27°C° 0.1 mm 2 m/s 754 mmHg 91%
    07:00 +27°C° 0.1 mm 2 m/s 754 mmHg 89%
    08:00 +29°C° 0.1 mm 3 m/s 754 mmHg 81%
    09:00 +31°C° 0.1 mm 3 m/s 754 mmHg 72%
    10:00 +33°C° 0.1 mm 4 m/s 754 mmHg 63%
    11:00 +34°C° 0.1 mm 4 m/s 754 mmHg 60%
    12:00 +35°C° 0.1 mm 4 m/s 753 mmHg 56%
    13:00 +36°C° 0.1 mm 4 m/s 752 mmHg 52%
    14:00 +35°C° 0.1 mm 4 m/s 752 mmHg 56%
    15:00 +34°C° 0.1 mm 4 m/s 751 mmHg 60%
    16:00 +33°C° 0.1 mm 4 m/s 751 mmHg 63%
    17:00 +32°C° 0 mm 4 m/s 752 mmHg 70%
    18:00 +29°C° 0 mm 4 m/s 752 mmHg 76%
    19:00 +28°C° 0 mm 4 m/s 753 mmHg 82%
    20:00 +28°C° 0.1 mm 4 m/s 753 mmHg 85%
    21:00 +27°C° 0.1 mm 4 m/s 753 mmHg 87%
    22:00 +27°C° 0.1 mm 4 m/s 754 mmHg 89%
    23:00 +27°C° 0.4 mm 4 m/s 753 mmHg 91%
    Voir plus